Location: Lake Sonoma
(38.7200°N, 123.0564°W)
Time: 20:32:40
(UTC-08:00)

Daily predictions for brighter satellites

Satellite Brightness Start Highest point End
(mag) Time Altitude Azimuth Time Altitude Azimuth Time Altitude Azimuth
NOSS 2-2 (E) 4.1 18:15:29 10° SW 18:19:28 59° NW 18:24:04 10° NNE
Cosmos 2082 Rocket 4.4 18:17:29 10° WSW 18:22:04 25° NW 18:26:42 10° N
Okean 3 4.2 18:20:34 10° NNW 18:24:48 60° W 18:29:00 10° S
BREEZE-M DEB (TANK) 4.1 18:13:25 10° WNW 18:24:49 57° NNE 18:28:13 10° E
Meteor 1-14 Rocket 4.4 18:21:43 10° S 18:27:40 87° E 18:33:42 10° N
SL-16 R/B 2.5 18:22:24 10° N 18:27:52 46° ENE 18:33:18 10° SE
CZ-3C R/B 4.0 18:20:54 10° SW 18:28:05 15° SSW 18:31:43 10° SSE
Cosmos 1340 4.1 18:30:47 10° NNE 18:33:25 18° ENE 18:36:02 10° ESE
Meteor 1-20 Rocket 4.3 18:30:36 10° S 18:36:18 63° E 18:42:05 10° NNE
Cosmos 2151 Rocket 3.9 18:32:04 10° SSE 18:36:19 44° E 18:40:37 10° NNE
Cosmos 1461 3.6 18:33:21 10° NNW 18:36:59 32° NE 18:40:40 10° ESE
Cosmos 1818 3.9 18:33:32 10° S 18:38:43 47° ESE 18:43:56 10° NE
BREEZE-M DEB (TANK) 4.2 18:35:47 10° SSW 18:40:09 23° SSE 18:42:08 13° E
Meteor 1-28 Rocket 3.6 18:36:45 10° N 18:40:32 68° WNW 18:44:18 10° SSW
FREGAT/IRIS 3.0 18:38:46 10° SSE 18:41:41 40° ENE 18:44:37 10° N
Cosmos 1745 Rocket 4.2 18:37:37 10° S 18:43:58 81° W 18:50:17 10° N
Okean 1 3.6 18:41:04 10° N 18:44:58 44° E 18:48:51 10° SSE
Okean 1 Rocket 4.3 18:42:31 10° SE 18:45:47 20° E 18:49:04 10° NE
Cosmos 2322 Rocket 2.1 18:40:55 10° NNW 18:46:31 68° ENE 18:52:06 10° SSE
Cosmos 2292 Rocket 4.2 18:42:56 10° SSE 18:47:27 52° E 18:53:32 10° NNE
ERBS 4.2 18:45:58 10° WNW 18:49:08 33° SW 18:52:17 10° SSE
SL-8 R/B 4.3 18:44:57 10° WNW 18:49:40 57° SW 18:54:23 10° SE
DELTA 2 R/B (1) 3.6 18:48:30 10° W 18:54:08 83° N 18:58:28 18° E
Cosmos 407 Rocket 3.5 18:52:45 10° SSW 18:57:58 87° ESE 19:03:18 10° NNE
ALOS 2.4 18:53:57 10° SSE 18:58:26 49° ENE 19:02:57 10° N
Cosmos 676 Rocket 4.0 18:53:55 10° S 18:58:59 61° ESE 19:04:08 10° NNE
H-2A R/B 3.5 18:57:11 11° SE 19:00:10 28° ENE 19:03:24 10° NNE
FENGYUN 3A 3.7 19:00:36 10° SSE 19:05:53 59° ENE 19:11:14 10° N
COSMOS 2428 4.0 19:05:02 10° N 19:09:09 20° NE 19:09:59 19° ENE
Cosmos 1812 3.6 19:05:51 10° NNW 19:09:36 51° W 19:13:20 10° S
Meteor 2-4 Rocket 4.3 19:04:51 10° N 19:09:47 31° ENE 19:13:14 17° SE
Cosmos 1238 Rocket 2.3 19:11:34 10° N 19:14:27 42° ENE 19:14:27 42° ENE
Helios 1B rocket 3.4 19:15:08 27° ESE 19:15:08 27° ESE 19:18:08 10° SSE
Meteor 1-11 Rocket 3.8 19:12:54 10° S 19:18:32 59° E 19:24:18 10° NNE
SAR-Lupe-4 4.2 19:20:07 34° NE 19:20:07 34° NE 19:23:00 10° N
Cosmos 1536 Rocket 3.7 19:18:32 10° N 19:23:00 77° W 19:27:29 10° S
ATLAS CENTAUR R/B 4.1 19:21:32 10° S 19:23:11 13° SSE 19:23:11 13° SSE
Cosmos 1140 Rocket 3.4 19:20:36 10° S 19:25:39 64° ESE 19:30:46 10° NNE
Tiangong 2 0.8 19:23:26 10° WNW 19:26:31 84° NNE 19:26:41 77° E
Resurs 01 Rocket 1.5 19:25:46 10° SSE 19:30:11 84° ENE 19:34:36 10° NNW
Spot 2 Rocket 3.4 19:27:28 10° SSE 19:32:31 83° ENE 19:37:37 10° NNW
Cosmos 1602 3.8 19:28:54 10° S 19:32:45 79° W 19:36:40 10° N
Cosmos 2219 3.7 19:27:47 10° S 19:33:00 37° ESE 19:33:37 36° E
HJ-1C 4.3 19:34:06 10° S 19:37:22 48° W 19:40:39 10° NNW
Cosmos 2360 Rocket 2.1 19:33:41 10° NNW 19:39:21 71° ENE 19:42:29 27° SE
GEOS 3 Rocket 4.5 19:34:51 10° NNE 19:39:53 49° NW 19:44:57 10° WSW
Cosmos 614 Rocket 3.8 19:35:05 10° S 19:40:06 65° ESE 19:43:41 19° NNE
Cosmos 1850 Rocket 4.0 19:35:28 10° S 19:40:35 55° ESE 19:43:04 29° NE
Cosmos 2219 Rocket 3.8 19:38:40 10° N 19:41:19 19° NE 19:41:19 19° NE
Cosmos 1633 3.6 19:42:14 10° SSW 19:45:47 46° W 19:49:21 10° N
Envisat 4.1 19:50:34 28° NNE 19:50:34 28° NNE 19:53:24 10° N
SL-08 ROCKET BODY 4.3 19:43:33 10° S 19:49:40 73° E 19:55:52 10° N
Cosmos 2327 Rocket 4.4 19:44:52 10° S 19:50:57 62° E 19:57:09 10° NNE
Cosmos 2181 Rocket 4.3 19:44:49 10° NNW 19:51:01 69° W 19:57:17 10° S
Cosmos 1300 Rocket 4.4 19:49:57 10° SSW 19:54:12 49° W 19:58:31 10° N
Resurs 1-3 4.0 19:50:44 10° S 19:55:03 61° WSW 19:59:25 10° NNW
USA 229 DEB 4.2 19:55:29 10° NNW 20:02:10 40° NE 20:02:29 40° NE
USA 229 4.3 19:55:36 10° NNW 20:02:15 40° NE 20:02:34 40° NE
Cosmos 2333 Rocket 3.9 20:00:10 10° N 20:02:36 20° NNE 20:02:36 20° NNE
Cosmos 2184 Rocket 3.9 20:03:22 10° S 20:09:43 89° WNW 20:16:02 10° N
Cosmos 2074 Rocket 3.9 20:03:46 10° S 20:10:01 86° W 20:16:20 10° N
SL-16 R/B 4.5 20:07:16 10° NW 20:11:36 23° W 20:15:54 10° SSW
Cosmos 1536 3.8 20:09:50 10° SSW 20:19:18 - N 20:13:23 44° W
Gbstr 26 Del rocket 4.3 20:10:29 10° WSW 20:12:35 31° WSW 20:12:35 31° WSW
Meteor 1-5 Rocket 4.4 20:18:22 10° SSW 20:24:20 75° W 20:30:17 10° N
Helios 1A 4.3 20:25:04 38° WNW 20:25:04 38° WNW 20:28:19 10° NNW
Cosmos 2285 Rocket 4.3 20:30:26 10° NNW 20:35:38 60° N 20:35:38 60° N
DELTA 2 R/B (1) 4.4 20:35:03 10° W 20:39:15 46° WSW 20:39:15 46° WSW
COSMOS 2428 3.8 20:48:16 10° NNW 20:52:04 41° NW 20:52:04 41° NW
Cosmos 2237 Rocket 4.4 21:00:26 10° NNW 21:01:40 17° N 21:01:40 17° N
Cosmos 2219 Rocket 4.4 21:21:36 10° NNW 21:23:05 18° NW 21:23:05 18° NW
